Location: ???????
(55.4362°N, 38.1183°E)
Time: 13:20:31
(UTC+00:00)

Cosmos 2219 Rocket - Pass Details

Date: 26 October 2021
Orbit: 826 x 848 km, 71.0° (Epoch: 01 December)

Event Time Altitude Azimuth Distance (km) Brightness Sun altitude
Exits shadow 02:46:49 10° 315° (NW) 2,506 4.2 -13.7°
Reaches altitude 10° 02:46:56 10° 315° (NW) 2,468 4.2 -13.7°
Maximum altitude 02:51:59 35° 252° (WSW) 1,344 2.8 -13.0°
Drops below altitude 10° 02:57:03 10° 188° (S) 2,464 4.6 -12.3°
Sets 02:59:40 0° 180° (S) 3,397 5.4 -11.9°
